Temperature
20 20 20 20 19 19 19 18 18 18 17 17 17 17 16 16 16 16 16 16 16 15 15 15 15 15 15 15 15 15 15 15 16 16 16 16 16 16 16 16 16 16 16
20 20 20 20 19 19 19 18 18 18 17 17 17 17 16 16 16 16 16 16 15 15 15 15 15 15 15 15 15 15 15 15 15 16 16 16 16 16 16 16 16 16 16
21 20 20 19 19 19 19 18 18 18 17 17 17 17 16 16 16 16 15 15 15 15 15 15 15 15 15 15 15 15 15 15 15 15 15 15 15 15 16 16 15 15 15
21 20 20 19 19 19 18 18 18 18 17 17 17 17 16 16 16 15 15 15 15 15 15 15 15 15 15 15 14 15 14 15 15 15 15 15 15 15 15 15 15 15 15
21 20 20 19 19 19 18 18 18 18 17 17 17 17 16 16 16 15 15 15 15 15 15 15 15 15 14 14 14 14 14 14 14 14 14 15 15 15 15 14 15 15 15
21 20 20 19 19 18 18 18 18 17 17 17 16 16 16 16 16 15 15 15 15 15 15 15 15 14 14 14 14 14 14 14 14 14 14 14 14 14 14 14 14 14 14
21 20 20 19 19 18 18 18 17 17 17 16 16 16 16 16 15 15 15 15 15 14 14 14 14 14 14 14 14 14 14 14 14 14 14 14 14 14 14 14 14 14 14
21 20 19 19 18 18 18 17 17 17 17 17 16 16 16 16 15 15 15 15 15 14 14 14 14 14 14 14 14 14 14 14 14 13 13 13 13 13 13 13 13 14 14
21 20 19 19 18 18 18 17 17 17 17 17 16 16 16 16 15 15 15 15 15 14 14 14 14 14 14 14 14 14 14 14 13 13 13 13 13 13 13 13 13 13 13
21 20 19 19 18 18 18 17 17 17 17 16 16 16 16 16 15 15 15 15 15 15 14 14 14 14 14 14 14 14 13 13 13 13 13 13 13 13 13 13 13 13 13
21 20 19 19 18 18 17 17 17 17 17 16 16 16 16 16 15 15 15 15 15 14 14 14 14 14 14 14 14 13 13 13 13 13 13 13 13 13 13 13 12 12 12
21 20 20 19 18 18 17 17 17 17 17 16 16 16 16 16 15 15 15 15 15 14 14 14 14 14 14 14 13 13 13 13 13 13 13 13 13 12 12 12 12 12 12
21 20 19 19 18 18 17 17 17 17 17 17 16 16 16 16 15 15 15 15 15 14 14 14 14 14 14 14 13 13 13 13 13 13 12 12 12 12 12 12 12 12 12
21 20 19 19 18 18 17 17 17 17 17 17 16 16 16 16 15 15 15 15 15 14 14 14 14 14 14 13 13 13 13 13 13 12 12 12 12 12 12 12 12 12 11
21 20 19 19 18 18 17 17 17 17 17 17 16 16 16 16 15 15 15 15 14 14 14 14 14 14 14 13 13 13 13 13 12 12 12 12 12 12 12 12 11 11 11
21 20 19 19 18 18 18 17 17 17 17 17 16 16 16 16 15 15 15 15 14 14 14 14 14 14 13 13 13 13 13 12 12 12 12 12 12 11 11 11 11 11 11
21 20 19 19 19 18 18 18 17 17 17 17 16 16 16 16 15 15 14 14 14 14 14 14 13 13 13 13 13 13 13 12 12 12 11 11 11 11 11 11 11 11 10
21 20 20 19 19 19 18 18 17 17 17 16 16 16 16 15 15 15 14 14 14 14 14 13 13 13 13 13 13 13 12 12 12 11 11 11 11 11 11 10 10 10 10
21 21 20 20 19 19 18 18 17 17 17 16 16 16 16 15 15 15 15 14 14 14 13 13 13 13 13 13 13 12 12 12 12 11 11 11 10 10 10 10 10 10 10
21 20 20 19 19 19 18 18 17 17 17 17 16 16 16 15 15 15 15 14 14 14 13 13 13 13 13 12 12 12 12 12 11 11 11 10 10 10 10 10 10 10 9
21 20 20 19 19 19 18 18 17 17 17 17 16 16 15 15 15 15 14 14 14 13 13 13 13 12 12 12 12 12 12 11 11 10 10 10 10 10 10 10 9 9 9
20 19 19 19 19 18 18 18 17 17 16 16 16 15 15 15 15 14 14 14 13 13 13 12 12 12 12 12 12 11 11 11 11 10 10 10 10 9 9 9 9 9 9
19 19 19 18 18 18 18 17 17 17 16 16 16 15 15 15 14 14 14 13 13 13 12 12 12 12 12 11 11 11 11 10 10 10 10 9 9 9 9 9 9 8 8
19 18 18 18 17 17 17 17 17 16 16 16 15 15 15 14 14 14 13 13 13 13 12 12 12 12 11 11 11 11 11 10 10 10 9 9 9 9 9 8 8 8 8
18 18 18 17 17 17 17 16 16 16 15 15 15 14 14 14 14 13 13 13 13 13 12 12 12 11 11 11 11 11 10 10 10 9 9 9 9 8 8 8 8 7 7
18 17 17 17 17 16 16 16 16 15 15 14 14 14 14 13 13 13 13 13 12 12 12 12 11 11 11 11 10 10 10 10 9 9 8 8 8 8 7 7 7 7 7
Wind_Speed
8 7 6 5 5 5 7 6 4 4 4 3 3 3 3 3 4 5 8 8 9 10 7 5 5 5 5 6 6 5 5 4 4 3 3 3 4 4 3 3 4 4 6
9 7 5 4 4 5 5 5 5 5 5 3 2 2 3 4 3 4 6 9 10 10 8 5 4 4 5 7 6 5 5 4 5 3 2 2 3 4 4 3 4 5 5
10 9 7 5 4 4 5 5 5 6 5 4 3 3 3 2 3 3 3 6 9 9 9 8 5 5 5 5 5 6 6 5 5 5 4 3 2 3 3 5 5 5 4
8 8 7 7 6 5 4 5 4 5 5 5 3 3 3 3 3 3 3 4 7 7 8 8 7 5 5 5 6 7 5 5 5 4 4 3 2 1 2 4 4 5 5
9 8 8 7 7 6 4 4 5 5 5 5 3 3 3 3 3 3 4 4 4 6 7 7 6 5 4 5 5 6 6 5 5 4 4 4 4 4 3 2 4 4 4
9 9 8 7 7 6 5 5 6 6 4 4 4 4 4 4 4 3 2 2 2 2 4 6 6 5 4 4 4 4 5 5 6 5 5 4 4 4 3 3 3 3 2
10 9 9 8 8 8 6 6 6 5 4 3 4 5 3 3 3 2 2 2 2 2 4 4 4 3 4 4 4 4 4 5 5 5 4 4 4 4 4 3 3 3 2
11 10 10 9 9 8 7 7 7 5 4 3 4 4 3 2 2 2 2 2 3 2 3 3 4 4 5 5 4 4 4 5 5 5 5 3 4 4 4 3 3 3 3
11 11 10 10 9 9 7 7 7 6 5 4 3 3 4 3 3 2 3 3 2 2 2 2 3 3 4 4 4 3 4 4 4 4 4 3 3 3 4 3 3 2 3
12 11 10 10 9 8 8 8 7 7 5 4 3 3 3 4 2 2 3 2 3 2 1 1 3 3 3 4 4 3 3 3 3 2 4 4 3 3 3 3 3 3 2
11 11 10 10 9 9 8 7 7 7 6 5 4 4 4 4 3 3 3 2 2 1 1 1 3 3 3 3 3 3 4 4 3 3 4 3 4 3 4 4 3 3 3
11 10 10 10 9 9 9 8 7 6 6 5 5 5 5 5 5 5 4 3 2 1 0 1 3 3 3 3 3 2 3 3 4 4 4 4 3 3 3 3 4 3 3
10 10 10 9 9 9 8 8 7 7 6 5 5 6 6 6 5 5 4 2 3 2 1 2 3 3 3 3 2 2 2 2 3 3 3 4 4 4 3 4 4 3 4
9 9 9 9 9 8 8 7 7 7 7 6 5 6 6 6 5 5 4 2 2 1 2 3 3 3 3 3 3 4 3 3 2 3 2 3 3 3 4 4 5 5 5
10 10 9 9 9 9 8 7 7 7 7 7 6 5 5 6 5 5 4 3 2 1 2 3 3 3 2 3 4 4 5 4 3 2 2 2 2 3 3 3 4 4 4
10 10 10 9 10 10 9 8 8 8 8 7 6 5 4 5 5 5 4 3 2 1 2 2 3 2 2 4 5 4 4 4 3 3 2 1 1 2 3 5 5 5 4
9 10 10 10 10 10 10 9 9 8 8 7 6 6 6 5 5 5 5 4 3 2 1 1 1 2 2 2 2 3 3 4 4 3 3 3 3 3 2 5 6 6 7
8 9 9 9 9 8 9 9 9 8 8 7 6 6 6 6 5 5 4 4 3 3 3 2 2 2 1 1 1 3 3 4 3 3 2 2 2 4 4 5 5 4 5
7 7 7 8 8 8 8 9 9 8 8 7 7 7 7 7 6 6 5 4 3 3 3 3 3 3 1 2 1 2 2 3 4 3 2 2 2 4 6 5 5 6 6
5 6 6 7 7 7 8 8 9 8 8 8 7 7 7 7 7 6 5 4 4 3 3 3 3 3 3 3 3 2 2 3 3 2 1 1 2 4 5 4 5 6 6
5 6 6 6 6 7 8 8 7 7 7 7 7 7 7 7 6 6 5 4 4 4 4 4 4 4 4 4 5 4 2 2 3 3 2 2 4 5 6 6 5 8 9
5 6 5 5 5 6 7 7 6 6 6 7 7 6 6 6 6 6 5 5 4 4 4 4 4 4 4 5 5 6 5 4 3 3 2 3 6 7 9 8 9 12 11
5 5 5 5 5 5 6 6 5 6 6 7 7 6 6 5 5 6 6 5 4 4 4 4 4 3 3 4 6 6 6 6 4 3 5 7 8 9 8 10 12 10 6
5 5 5 5 5 5 6 5 5 6 6 7 7 6 6 6 6 4 5 4 4 4 4 4 4 4 3 2 3 3 4 5 5 5 6 9 10 8 9 9 8 6 5
5 5 5 5 5 5 6 6 6 6 6 6 6 6 6 6 5 5 5 5 5 5 5 4 3 3 4 4 5 3 3 3 4 4 3 4 5 5 5 5 6 5 4
5 5 5 5 5 5 6 6 6 6 6 5 5 4 4 4 4 5 4 6 6 8 9 7 6 4 5 6 6 6 6 6 6 4 4 5 5 6 6 6 5 5 4
Wind_Direction
135 127 124 131 127 115 112 117 114 96 85 61 67 74 69 64 52 53 36 38 33 21 28 31 25 28 27 23 22 12 9 2 2 16 14 26 54 59 64 45 36 46 51
150 146 144 140 130 115 113 118 107 96 92 83 83 86 84 89 83 57 38 37 40 22 27 35 33 37 30 26 23 21 10 1 18 23 19 17 15 12 44 49 46 50 42
164 161 160 151 139 126 127 120 125 120 113 105 80 71 68 68 81 79 60 42 46 30 21 25 32 35 36 28 25 27 23 12 12 33 44 44 13 338 6 32 44 39 38
167 161 164 160 151 140 130 126 117 108 108 106 83 99 97 84 75 81 89 72 53 43 27 27 33 39 35 29 29 31 23 29 14 7 23 41 50 21 356 6 25 33 43
171 168 167 159 149 142 134 119 105 91 84 91 77 62 72 86 79 75 71 73 58 50 38 33 37 38 35 31 37 36 33 32 26 16 13 12 15 20 44 7 4 18 29
171 166 156 146 137 129 121 106 97 91 89 103 108 93 88 86 85 75 71 87 84 58 50 48 42 37 33 33 32 43 45 38 33 27 25 26 26 10 18 16 10 13 357
170 164 156 152 140 138 137 131 125 129 140 138 124 113 103 102 97 98 78 69 76 56 50 57 53 40 30 43 36 40 48 51 47 37 23 23 28 20 20 18 358 355 342
170 165 159 154 146 148 154 148 141 144 152 153 132 128 127 108 99 79 84 74 75 67 61 66 66 55 39 38 41 35 40 46 48 43 37 30 23 23 21 21 10 1 358
165 161 157 155 154 158 160 156 153 155 162 153 132 123 120 106 114 121 86 78 89 74 53 80 91 79 68 51 42 45 42 43 37 32 35 33 25 26 11 12 24 32 2
165 161 159 159 161 162 164 166 160 157 159 159 156 132 124 119 115 105 94 87 85 65 335 34 91 82 81 75 52 38 35 50 44 40 40 28 17 18 13 4 4 16 11
163 162 160 161 161 158 163 164 160 159 162 161 147 142 148 146 147 126 123 139 135 190 204 56 87 84 78 86 71 37 33 36 29 27 46 36 24 18 10 2 6 7 10
161 159 159 159 160 164 170 168 168 162 161 163 158 161 156 162 168 158 168 179 155 182 210 126 100 89 73 69 75 50 40 36 28 20 26 18 24 20 7 2 1 352 354
159 159 159 164 166 169 174 172 169 163 161 163 166 168 172 172 172 163 163 176 162 175 193 105 93 88 70 56 35 37 24 33 26 19 22 17 21 11 360 1 358 345 347
162 162 163 165 166 171 176 170 165 159 160 167 180 183 177 163 167 161 156 171 158 148 111 95 92 83 66 49 25 18 5 7 13 17 23 27 33 20 0 359 352 350 347
167 169 170 169 169 174 178 172 166 163 166 170 181 184 171 155 153 143 145 146 127 130 111 106 98 83 65 42 36 8 353 353 355 353 355 42 39 21 2 350 339 342 334
174 172 175 174 178 180 180 173 168 170 170 174 177 169 157 144 145 147 151 142 133 113 93 87 88 77 58 66 47 12 344 334 337 338 347 359 355 342 329 321 316 318 321
174 176 180 181 185 185 180 175 173 169 171 170 168 162 158 151 154 159 152 151 153 143 121 117 112 110 100 78 31 347 322 315 321 330 327 323 346 357 323 311 300 292 291
172 177 181 181 181 180 174 169 165 168 170 167 165 162 161 158 157 158 162 171 166 162 165 184 170 145 160 181 314 314 297 294 297 302 311 316 338 346 345 331 325 307 290
169 174 177 172 171 174 171 165 166 169 170 169 169 165 163 162 162 167 170 171 172 173 177 187 178 176 207 217 245 300 293 289 291 288 319 351 356 343 345 334 317 312 308
152 160 165 166 169 170 162 166 171 172 173 169 168 164 164 165 169 173 174 172 174 183 181 190 192 192 195 202 219 246 264 285 291 289 276 317 319 326 333 320 311 306 304
138 145 156 166 167 162 159 169 172 175 166 158 159 160 161 166 170 173 174 172 178 185 197 202 201 199 202 205 208 218 225 264 288 291 287 278 304 307 305 302 287 288 298
133 142 153 156 153 153 157 168 173 164 149 149 153 161 164 172 177 171 177 182 186 192 204 211 219 213 204 199 210 219 227 249 275 288 285 276 293 294 294 291 285 292 299
144 147 148 146 149 154 159 170 165 149 146 150 158 164 167 169 169 174 182 189 192 196 209 211 220 225 212 200 208 220 236 251 259 276 288 288 288 292 289 282 283 289 285
152 153 154 161 168 166 164 167 154 150 157 166 170 175 179 178 180 181 184 190 198 206 215 216 222 225 215 204 205 217 234 251 263 273 284 287 286 280 277 280 277 264 259
159 164 171 172 175 169 169 166 161 163 173 180 179 182 184 184 183 183 191 195 199 199 205 217 216 214 226 219 201 208 231 242 250 274 277 277 278 276 273 273 270 264 265
166 171 171 172 181 177 173 171 170 174 185 192 189 187 183 181 183 186 201 211 208 206 209 211 215 224 218 219 221 225 237 249 256 267 265 267 266 268 272 274 274 271 269
Height
1546 1549 1551 1552 1554 1555 1555 1556 1557 1557 1557 1557 1557 1557 1557 1557 1556 1555 1555 1555 1554 1553 1552 1551 1550 1549 1548 1548 1547 1546 1546 1545 1545 1545 1545 1545 1545 1545 1545 1545 1545 1545 1544
1545 1548 1550 1552 1553 1554 1555 1556 1557 1557 1557 1557 1557 1558 1558 1557 1557 1556 1556 1556 1555 1554 1553 1552 1551 1550 1549 1549 1548 1547 1547 1547 1546 1546 1546 1546 1548 1547 1547 1546 1546 1546 1545
1544 1547 1549 1551 1553 1554 1555 1556 1557 1557 1557 1557 1558 1558 1558 1558 1557 1557 1556 1556 1555 1554 1554 1553 1552 1552 1550 1550 1549 1549 1548 1548 1548 1548 1548 1548 1548 1548 1548 1548 1547 1547 1547
1542 1545 1548 1550 1552 1554 1555 1556 1557 1557 1557 1557 1558 1558 1558 1558 1558 1558 1557 1557 1556 1555 1555 1554 1553 1552 1552 1551 1551 1550 1550 1549 1549 1549 1549 1550 1550 1549 1549 1549 1548 1548 1548
1540 1543 1546 1548 1550 1552 1554 1555 1556 1556 1557 1557 1557 1558 1558 1558 1558 1558 1558 1557 1557 1556 1555 1555 1554 1553 1553 1552 1552 1551 1551 1550 1550 1550 1550 1550 1550 1550 1550 1549 1549 1549 1549
1538 1541 1544 1547 1549 1551 1552 1553 1554 1555 1556 1557 1557 1557 1557 1558 1558 1558 1558 1557 1557 1557 1556 1556 1555 1554 1554 1553 1553 1553 1552 1552 1552 1551 1551 1551 1551 1550 1550 1550 1550 1549 1549
1536 1539 1542 1545 1547 1549 1551 1552 1553 1554 1555 1556 1556 1557 1557 1557 1557 1558 1558 1558 1557 1557 1557 1556 1556 1555 1555 1555 1554 1554 1554 1553 1553 1553 1552 1552 1552 1552 1551 1551 1550 1550 1550
1533 1537 1540 1543 1545 1547 1549 1551 1552 1553 1554 1555 1556 1556 1556 1557 1557 1557 1557 1557 1557 1557 1557 1557 1556 1556 1556 1556 1556 1555 1555 1555 1554 1554 1553 1553 1553 1552 1552 1552 1551 1550 1550
1531 1534 1538 1540 1543 1545 1547 1549 1550 1552 1553 1553 1554 1555 1555 1555 1556 1556 1557 1557 1557 1557 1557 1557 1557 1557 1557 1556 1556 1556 1556 1556 1555 1555 1555 1554 1554 1553 1553 1552 1552 1552 1550
1528 1532 1535 1538 1541 1543 1545 1547 1549 1550 1551 1552 1552 1553 1553 1554 1554 1555 1555 1556 1556 1556 1557 1557 1557 1557 1557 1557 1557 1557 1557 1557 1556 1556 1555 1555 1554 1554 1553 1553 1552 1552 1552
1525 1529 1533 1536 1539 1541 1543 1545 1547 1548 1549 1550 1550 1551 1551 1552 1553 1554 1554 1555 1555 1556 1556 1557 1557 1557 1557 1557 1557 1557 1557 1557 1557 1557 1556 1555 1555 1554 1553 1553 1552 1552 1551
1523 1527 1530 1534 1537 1539 1541 1543 1545 1546 1547 1548 1548 1549 1549 1550 1551 1552 1553 1554 1555 1555 1556 1557 1557 1557 1558 1558 1558 1558 1558 1557 1557 1557 1556 1555 1555 1554 1553 1552 1551 1551 1550
1521 1525 1528 1531 1534 1536 1539 1541 1542 1543 1544 1545 1546 1547 1548 1549 1550 1551 1552 1553 1554 1555 1556 1556 1557 1557 1557 1557 1557 1557 1557 1557 1557 1556 1555 1555 1554 1553 1552 1552 1551 1550 1549
1518 1522 1525 1528 1531 1534 1536 1538 1540 1541 1542 1543 1544 1545 1546 1547 1549 1550 1551 1552 1553 1554 1555 1555 1556 1556 1556 1557 1557 1557 1557 1557 1556 1555 1555 1554 1553 1552 1551 1550 1549 1548 1547
1517 1520 1522 1526 1528 1531 1534 1536 1537 1538 1540 1541 1542 1543 1545 1546 1547 1548 1549 1550 1551 1552 1553 1554 1555 1555 1555 1556 1556 1556 1556 1555 1555 1554 1554 1553 1552 1551 1550 1549 1548 1547 1545
1514 1517 1520 1523 1526 1528 1531 1533 1534 1536 1537 1539 1540 1541 1543 1544 1545 1547 1548 1549 1550 1551 1552 1553 1553 1554 1554 1554 1554 1554 1554 1553 1553 1553 1552 1551 1550 1549 1548 1547 1546 1545 1543
1511 1514 1517 1520 1522 1525 1528 1530 1531 1533 1535 1536 1538 1539 1541 1542 1543 1545 1546 1547 1548 1549 1550 1551 1552 1552 1552 1552 1552 1552 1552 1551 1551 1550 1550 1549 1548 1547 1545 1544 1543 1542 1541
1508 1511 1514 1517 1520 1523 1525 1527 1529 1531 1533 1534 1536 1537 1538 1540 1541 1543 1544 1545 1546 1547 1548 1549 1549 1550 1550 1550 1550 1550 1549 1549 1548 1548 1547 1546 1545 1544 1543 1541 1539 1538 1537
1506 1509 1512 1515 1517 1520 1522 1525 1526 1528 1530 1532 1533 1535 1536 1537 1539 1540 1542 1543 1544 1545 1546 1546 1547 1547 1547 1547 1547 1547 1546 1546 1545 1545 1544 1543 1542 1541 1539 1538 1536 1534 1533
1504 1506 1509 1512 1515 1517 1520 1522 1524 1526 1527 1529 1531 1532 1533 1535 1536 1538 1539 1540 1541 1542 1543 1543 1544 1544 1544 1545 1544 1544 1543 1543 1542 1542 1541 1540 1539 1537 1536 1534 1532 1529 1528
1502 1504 1507 1510 1512 1515 1517 1519 1521 1523 1524 1527 1528 1530 1531 1532 1533 1535 1536 1537 1538 1539 1540 1540 1541 1541 1541 1541 1541 1541 1540 1539 1539 1538 1537 1536 1535 1533 1532 1530 1528 1526 1524
1500 1502 1505 1507 1510 1512 1514 1516 1518 1520 1522 1524 1525 1526 1528 1529 1530 1532 1533 1534 1535 1536 1537 1537 1537 1538 1538 1538 1537 1537 1537 1536 1535 1534 1532 1531 1530 1529 1527 1525 1523 1521 1519
1498 1500 1503 1505 1507 1509 1511 1513 1515 1518 1519 1520 1522 1523 1525 1526 1527 1528 1529 1531 1532 1532 1533 1533 1533 1534 1534 1534 1534 1533 1533 1532 1531 1529 1528 1527 1525 1524 1522 1520 1518 1516 1514
1497 1499 1501 1503 1505 1507 1509 1511 1513 1514 1516 1517 1518 1520 1521 1522 1523 1525 1526 1526 1527 1528 1528 1529 1529 1529 1529 1529 1529 1528 1528 1527 1526 1524 1523 1522 1520 1518 1516 1514 1513 1511 1509
1495 1496 1498 1500 1502 1504 1506 1508 1510 1511 1512 1514 1515 1516 1517 1518 1519 1520 1521 1522 1523 1524 1524 1524 1525 1525 1524 1524 1524 1524 1523 1522 1521 1519 1517 1516 1514 1512 1510 1509 1507 1505 1504
1493 1494 1496 1498 1499 1501 1503 1505 1506 1508 1509 1510 1511 1512 1513 1514 1515 1516 1517 1518 1519 1519 1520 1520 1520 1520 1520 1520 1519 1519 1518 1516 1515 1514 1511 1510 1508 1507 1505 1503 1502 1500 1498